Location: Clarion
(42.7316°N, 93.7330°W)
Time: 09:14:43
(UTC+00:00)

Cosmos 540 Rocket - Pass Details

Date: 22 April 2026
Orbit: 734 x 747 km, 74.1° (Epoch: 17 May)

Event Time Altitude Azimuth Distance (km) Brightness Sun altitude
Exits shadow 09:20:08 39° 262° (W) 1,118 3.9 -20.4°
Maximum altitude 09:21:13 44° 295° (WNW) 1,024 3.9 -20.2°
Drops below altitude 10° 09:26:09 10° 8° (N) 2,273 6.6 -19.5°
Sets 09:28:38 0° 15° (NNE) 3,202 7.6 -19.2°
